FW1574 Weather Reports


Display with metric or nautical units.
time (UTC)temp
F
wind
direction
speed
MPH
gust
MPH
rain 1hr
in
rain 24hr
in
rain mn
in
humidity
%
barometer
mb
20260505163034 73 77 2.0 6.0 0.00 0.00 0.00 55 1013.9
20260505162534 73 234 0.0 2.0 0.00 0.00 0.00 58 1013.8
20260505162033 73 234 0.0 2.0 0.00 0.00 0.00 58 1013.7
20260505161534 73 247 1.0 4.0 0.00 0.00 0.00 57 1013.7
20260505161033 73 80 0.0 6.0 0.00 0.00 0.00 58 1013.7
20260505160532 73 91 1.0 4.0 0.00 0.00 0.00 58 1014.0
20260505153030 70 139 0.0 6.0 0.00 0.00 0.00 63 1014.2
20260505152527 70 88 2.0 6.0 0.00 0.00 0.00 62 1014.2
20260505152028 69 238 1.0 3.0 0.00 0.00 0.00 62 1014.2
20260505151523 69 244 0.0 6.0 0.00 0.00 0.00 63 1014.3
20260505151023 68 68 0.0 2.0 0.00 0.00 0.00 63 1014.2
20260505150522 68 208 0.0 2.0 0.00 0.00 0.00 66 1014.1
20260505140517 63 169 0.0 1.0 0.00 0.00 0.00 70 1014.2
20260505124605 56 86 0.0 0.0 0.00 0.00 0.00 88 1014.2
20260505124055 55 86 0.0 0.0 0.00 0.00 0.00 88 1014.2
20260505123556 55 86 0.0 0.0 0.00 0.00 0.00 88 1014.1
20260505123110 55 86 0.0 0.0 0.00 0.00 0.00 88 1014.0
20260505122552 54 86 0.0 0.0 0.00 0.00 0.00 88 1014.0
20260505122051 54 86 0.0 2.0 0.00 0.00 0.00 87 1013.8
20260505121551 53 86 0.0 2.0 0.00 0.00 0.00 89 1013.7
20260505121051 52 85 1.0 2.0 0.00 0.00 0.00 90 1013.7
20260505120551 52 348 0.0 0.0 0.00 0.00 0.00 91 1013.8
20260505120053 51 348 0.0 0.0 0.00 0.00 0.00 91 1013.8
20260505115549 51 348 0.0 0.0 0.00 0.00 0.00 92 1013.6
20260505115048 51 348 0.0 2.0 0.00 0.00 0.00 92 1013.5
20260505114558 50 348 0.0 2.0 0.00 0.00 0.00 92 1013.5
20260505114048 49 348 0.0 1.0 0.00 0.00 0.00 93 1013.4
20260505113550 49 348 0.0 1.0 0.00 0.00 0.00 93 1013.4
20260505113050 48 348 0.0 1.0 0.00 0.00 0.00 93 1013.2
20260505112544 48 348 0.0 0.0 0.00 0.00 0.00 93 1013.1
20260505112044 48 348 0.0 1.0 0.00 0.00 0.00 92 1013.1
20260505111544 48 348 0.0 1.0 0.00 0.00 0.00 92 1013.0
20260505111043 48 348 0.0 1.0 0.00 0.00 0.00 92 1013.0
20260505110542 48 348 0.0 0.0 0.00 0.00 0.00 92 1012.9
20260505102038 49 157 0.0 0.0 0.00 0.00 0.00 92 1012.8
20260505101544 49 157 0.0 0.0 0.00 0.00 0.00 92 1012.5
20260505101041 48 157 0.0 0.0 0.00 0.00 0.00 92 1012.3
20260505100537 49 157 0.0 0.0 0.00 0.00 0.00 91 1012.4
20260505100038 49 157 0.0 0.0 0.00 0.00 0.00 92 1012.3
20260505095536 49 157 0.0 0.0 0.00 0.00 0.00 91 1012.4
20260505095039 49 157 0.0 0.0 0.00 0.00 0.00 91 1012.4
20260505094536 49 157 0.0 0.0 0.00 0.00 0.00 91 1012.4
20260505094035 49 157 0.0 0.0 0.00 0.00 0.00 91 1012.4
20260505093535 49 157 0.0 0.0 0.00 0.00 0.00 91 1012.4
20260505093043 49 157 0.0 0.0 0.00 0.00 0.00 90 1012.3
20260505092532 50 157 0.0 0.0 0.00 0.00 0.00 90 1012.3
20260505092032 51 157 0.0 0.0 0.00 0.00 0.00 90 1012.3
20260505091540 51 157 0.0 0.0 0.00 0.00 0.00 89 1012.3
20260505091030 51 157 0.0 1.0 0.00 0.00 0.00 90 1012.4
20260505090529 51 157 0.0 2.0 0.00 0.00 0.00 89 1012.4
20260505090044 51 157 1.0 2.0 0.00 0.00 0.00 88 1012.3
20260505085529 52 157 0.0 1.0 0.00 0.00 0.00 88 1012.2
20260505085026 53 157 0.0 0.0 0.00 0.00 0.00 88 1012.2
20260505084526 53 157 0.0 0.0 0.00 0.00 0.00 88 1012.2
20260505084025 53 157 0.0 0.0 0.00 0.00 0.00 89 1012.3
20260505083524 53 157 0.0 0.0 0.00 0.00 0.00 89 1012.3
20260505083026 53 157 0.0 0.0 0.00 0.00 0.00 88 1012.4
20260505082527 54 157 0.0 0.0 0.00 0.00 0.00 88 1012.4
20260505082023 53 157 0.0 0.0 0.00 0.00 0.00 87 1012.4
20260505081534 53 157 0.0 0.0 0.00 0.00 0.00 87 1012.4
20260505081022 53 157 0.0 0.0 0.00 0.00 0.00 88 1012.4
20260505080522 53 157 0.0 0.0 0.00 0.00 0.00 89 1012.4
20260505080043 53 157 0.0 0.0 0.00 0.00 0.00 89 1012.5
20260505075521 54 157 0.0 0.0 0.00 0.00 0.00 89 1012.4
20260505075020 54 157 0.0 0.0 0.00 0.00 0.00 89 1012.5
20260505074520 54 157 0.0 0.0 0.00 0.00 0.00 88 1012.5
20260505074019 54 157 0.0 0.0 0.00 0.00 0.00 86 1012.5
20260505073519 54 157 0.0 0.0 0.00 0.00 0.00 87 1012.6
20260505073019 54 157 0.0 0.0 0.00 0.00 0.00 87 1012.6
20260505072517 54 157 0.0 0.0 0.00 0.00 0.00 85 1012.5
20260505072017 54 157 0.0 0.0 0.00 0.00 0.00 85 1012.6
20260505071517 54 157 0.0 0.0 0.00 0.00 0.00 84 1012.5
20260505071016 54 157 0.0 0.0 0.00 0.00 0.00 83 1012.5
20260505070515 54 157 0.0 0.0 0.00 0.00 0.00 83 1012.5
20260505070021 55 157 0.0 0.0 0.00 0.00 0.00 84 1012.4
20260505065514 55 157 0.0 0.0 0.00 0.00 0.00 84 1012.5
20260505065012 55 157 0.0 0.0 0.00 0.00 0.00 84 1012.6
20260505064512 55 157 0.0 0.0 0.00 0.00 0.00 83 1012.6
20260505064013 56 157 0.0 0.0 0.00 0.00 0.00 81 1012.6
20260505063515 56 157 0.0 0.0 0.00 0.00 0.00 80 1012.7
20260505063010 57 157 0.0 0.0 0.00 0.00 0.00 79 1012.7
20260505062510 57 157 0.0 0.0 0.00 0.00 0.00 76 1012.7
20260505062009 57 157 0.0 0.0 0.00 0.00 0.00 75 1012.7
20260505061515 57 157 0.0 0.0 0.00 0.00 0.00 77 1012.7
20260505061012 58 157 0.0 0.0 0.00 0.00 0.00 77 1012.8
20260505060509 58 157 0.0 0.0 0.00 0.00 0.00 75 1012.8
20260505060015 58 157 0.0 0.0 0.00 0.00 0.00 74 1012.8
20260505055507 59 157 0.0 0.0 0.00 0.00 0.00 74 1012.6
20260505055008 59 157 0.0 0.0 0.00 0.00 0.00 74 1012.7
20260505054510 58 157 0.0 0.0 0.00 0.00 0.00 75 1012.7
20260505054007 59 157 0.0 0.0 0.00 0.00 0.00 76 1012.8
20260505053507 59 157 0.0 0.0 0.00 0.00 0.00 75 1012.8
20260505053015 59 157 0.0 0.0 0.00 0.00 0.00 74 1012.7
20260505052508 59 157 0.0 1.0 0.00 0.00 0.00 75 1012.7
20260505052005 59 157 0.0 1.0 0.00 0.00 0.00 76 1012.6
20260505051505 59 157 0.0 0.0 0.00 0.00 0.00 75 1012.7
20260505051005 59 157 0.0 0.0 0.00 0.00 0.00 75 1012.6
20260505050506 59 157 0.0 0.0 0.00 0.00 0.00 76 1012.7
20260505041606 57 157 0.0 0.0 0.00 0.00 0.00 80 1012.7
20260505041053 56 157 0.0 0.0 0.00 0.00 0.00 81 1012.7
20260505040555 56 157 0.0 0.0 0.00 0.00 0.00 82 1012.7
20260505040059 56 157 0.0 0.0 0.00 0.00 0.00 81 1012.7
20260505035557 57 157 0.0 0.0 0.00 0.00 0.00 80 1012.7
20260505035049 57 157 0.0 0.0 0.00 0.00 0.00 78 1012.7
20260505034547 58 157 0.0 0.0 0.00 0.00 0.00 77 1012.7
20260505034047 59 157 0.0 0.0 0.00 0.00 0.00 75 1012.7
20260505033549 59 157 0.0 0.0 0.00 0.00 0.00 73 1012.7
20260505033049 59 157 0.0 0.0 0.00 0.00 0.00 73 1012.7
20260505032547 59 157 0.0 0.0 0.00 0.00 0.00 74 1012.7
20260505032046 59 157 0.0 0.0 0.00 0.00 0.00 75 1012.6
20260505031548 59 157 0.0 0.0 0.00 0.00 0.00 75 1012.6
20260505031044 59 157 0.0 0.0 0.00 0.00 0.00 73 1012.6
20260505030544 59 157 0.0 0.0 0.00 0.00 0.00 73 1012.7
20260505030044 59 157 0.0 0.0 0.00 0.00 0.00 73 1012.7
20260505025544 59 157 0.0 0.0 0.00 0.00 0.00 73 1012.7
20260505025042 60 157 0.0 0.0 0.00 0.00 0.00 73 1012.7
20260505024542 61 157 0.0 0.0 0.00 0.00 0.00 68 1012.7
20260505024041 61 157 0.0 0.0 0.00 0.00 0.00 71 1012.8
20260505023544 62 157 0.0 0.0 0.00 0.00 0.00 67 1012.8
20260505023045 62 157 0.0 0.0 0.00 0.00 0.00 67 1012.8
20260505022540 62 157 0.0 0.0 0.00 0.00 0.00 68 1012.8
20260505022040 62 157 0.0 0.0 0.00 0.00 0.00 69 1012.8
20260505021542 62 157 0.0 0.0 0.00 0.00 0.00 67 1012.7
20260505021041 62 157 0.0 0.0 0.00 0.00 0.00 67 1012.7
20260505020539 63 157 0.0 0.0 0.00 0.00 0.00 68 1012.7
20260505020039 63 157 0.0 0.0 0.00 0.00 0.00 66 1012.5
20260505015539 64 157 0.0 0.0 0.00 0.00 0.00 62 1012.7
20260505015039 64 157 0.0 0.0 0.00 0.00 0.00 62 1012.6
20260505014557 64 157 0.0 0.0 0.00 0.00 0.00 61 1012.5
20260505014042 64 157 0.0 0.0 0.00 0.00 0.00 60 1012.4
20260505013538 65 157 0.0 0.0 0.00 0.00 0.00 59 1012.3
20260505013041 65 157 0.0 0.0 0.00 0.00 0.00 59 1012.3
20260505012539 65 157 0.0 0.0 0.00 0.00 0.00 60 1012.4
20260505012039 66 157 0.0 0.0 0.00 0.00 0.00 58 1012.3
20260505011538 66 157 0.0 0.0 0.00 0.00 0.00 58 1012.3
20260505011037 66 157 0.0 0.0 0.00 0.00 0.00 57 1012.2
20260505010537 67 157 0.0 0.0 0.00 0.00 0.00 55 1012.3
20260505010037 67 157 0.0 0.0 0.00 0.00 0.00 55 1012.2
20260505005538 67 157 0.0 0.0 0.00 0.00 0.00 54 1012.2
20260505005039 68 157 0.0 0.0 0.00 0.00 0.00 52 1012.1
20260505004542 69 157 0.0 1.0 0.00 0.00 0.00 51 1012.1
20260505004036 69 157 0.0 1.0 0.00 0.00 0.00 50 1012.0
20260505003538 70 270 0.0 1.0 0.00 0.00 0.00 48 1012.0
20260505003035 70 217 0.0 1.0 0.00 0.00 0.00 48 1012.0
20260505002540 71 212 0.0 0.0 0.00 0.00 0.00 49 1012.0
20260505002035 71 212 0.0 1.0 0.00 0.00 0.00 48 1012.0
20260505001536 71 212 0.0 2.0 0.00 0.00 0.00 47 1011.8
20260505001035 71 212 0.0 2.0 0.00 0.00 0.00 47 1011.8
20260505000536 72 242 0.0 2.0 0.00 0.00 0.00 46 1011.7
20260505000040 72 242 0.0 2.0 0.00 0.00 0.00 47 1011.7
20260504235534 72 242 0.0 2.0 0.00 0.00 0.00 46 1011.8
20260504235034 72 242 0.0 3.0 0.00 0.00 0.00 48 1011.7
20260504234541 73 215 0.0 3.0 0.00 0.00 0.00 47 1011.7
20260504234034 73 215 1.0 3.0 0.00 0.00 0.00 44 1011.7
20260504233534 74 243 1.0 3.0 0.00 0.00 0.00 44 1011.7
20260504233034 74 206 2.0 4.0 0.00 0.00 0.00 45 1011.8
20260504232534 74 219 0.0 4.0 0.00 0.00 0.00 44 1011.7
20260504232032 75 232 1.0 4.0 0.00 0.00 0.00 45 1011.8
20260504231536 75 245 2.0 3.0 0.00 0.00 0.00 45 1011.7
20260504231032 75 232 0.0 3.0 0.00 0.00 0.00 45 1011.8
20260504230531 75 223 1.0 4.0 0.00 0.00 0.00 48 1011.7
20260504230033 75 227 1.0 4.0 0.00 0.00 0.00 47 1011.8
20260504225532 75 85 0.0 3.0 0.00 0.00 0.00 50 1011.8
20260504225031 75 349 0.0 3.0 0.00 0.00 0.00 49 1011.8
20260504224530 75 233 1.0 3.0 0.00 0.00 0.00 49 1011.8
20260504224029 75 35 0.0 2.0 0.00 0.00 0.00 51 1011.8
20260504223530 76 260 0.0 2.0 0.00 0.00 0.00 49 1011.8
20260504223030 76 202 0.0 3.0 0.00 0.00 0.00 50 1011.8
20260504222530 76 98 0.0 3.0 0.00 0.00 0.00 49 1011.8
20260504222029 76 117 1.0 5.0 0.00 0.00 0.00 50 1011.8
20260504221534 76 79 1.0 5.0 0.00 0.00 0.00 48 1011.8
20260504221028 76 136 0.0 3.0 0.00 0.00 0.00 52 1011.8
20260504220528 76 178 0.0 6.0 0.00 0.00 0.00 50 1011.8
20260504220028 76 39 2.0 6.0 0.00 0.00 0.00 49 1011.7
20260504215527 76 229 1.0 7.0 0.00 0.00 0.00 51 1011.6
20260504215026 76 87 1.0 7.0 0.00 0.00 0.00 49 1011.6
20260504214527 76 239 1.0 3.0 0.00 0.00 0.00 51 1011.6
20260504214026 76 224 1.0 3.0 0.00 0.00 0.00 50 1011.6
20260504213526 76 136 0.0 3.0 0.00 0.00 0.00 54 1011.7
20260504213045 76 101 1.0 6.0 0.00 0.00 0.00 50 1011.8
20260504212524 76 113 1.0 5.0 0.00 0.00 0.00 48 1011.8
20260504212023 76 121 1.0 4.0 0.00 0.00 0.00 48 1011.9
20260504211523 77 33 0.0 3.0 0.00 0.00 0.00 47 1011.8
20260504211022 77 53 0.0 2.0 0.00 0.00 0.00 48 1011.9
20260504210521 77 86 0.0 5.0 0.00 0.00 0.00 50 1011.9
20260504210021 77 68 1.0 5.0 0.00 0.00 0.00 48 1011.9
20260504205521 77 226 0.0 2.0 0.00 0.00 0.00 52 1012.0
20260504205018 76 90 0.0 6.0 0.00 0.00 0.00 50 1012.1
20260504204519 76 78 2.0 6.0 0.00 0.00 0.00 48 1012.1
20260504204018 76 119 1.0 3.0 0.00 0.00 0.00 51 1012.2
20260504203517 76 180 0.0 2.0 0.00 0.00 0.00 50 1012.2
20260504203016 76 198 0.0 4.0 0.00 0.00 0.00 46 1012.3
20260504202517 77 232 1.0 4.0 0.00 0.00 0.00 46 1012.3
20260504202014 77 229 1.0 3.0 0.00 0.00 0.00 48 1012.3
20260504201521 76 272 1.0 4.0 0.00 0.00 0.00 48 1012.3
20260504201017 76 249 2.0 4.0 0.00 0.00 0.00 48 1012.4
20260504200513 76 182 1.0 7.0 0.00 0.00 0.00 48 1012.4
20260504200015 76 78 3.0 7.0 0.00 0.00 0.00 46 1012.6
20260504195512 76 73 0.0 3.0 0.00 0.00 0.00 48 1012.6
20260504195011 76 265 0.0 4.0 0.00 0.00 0.00 48 1012.7
20260504194514 77 175 1.0 5.0 0.00 0.00 0.00 48 1012.8
20260504194013 76 261 0.0 7.0 0.00 0.00 0.00 47 1012.8
20260504193509 76 75 1.0 6.0 0.00 0.00 0.00 48 1012.9
20260504193009 76 45 0.0 2.0 0.00 0.00 0.00 48 1013.0
20260504192507 76 99 0.0 2.0 0.00 0.00 0.00 47 1013.1
20260504192006 76 231 0.0 3.0 0.00 0.00 0.00 48 1013.2
20260504191506 76 236 1.0 4.0 0.00 0.00 0.00 45 1013.4
20260504191007 77 257 2.0 4.0 0.00 0.00 0.00 47 1013.4
20260504190504 77 245 1.0 3.0 0.00 0.00 0.00 47 1013.5
20260504190003 77 241 1.0 3.0 0.00 0.00 0.00 48 1013.6
20260504185506 77 236 1.0 2.0 0.00 0.00 0.00 48 1013.6
20260504185001 76 214 1.0 7.0 0.00 0.00 0.00 47 1013.7
20260504184608 76 207 3.0 7.0 0.00 0.00 0.00 47 1013.6
20260504184103 76 158 1.0 4.0 0.00 0.00 0.00 47 1013.8
20260504183604 77 234 2.0 4.0 0.00 0.00 0.00 48 1013.8
20260504183059 76 217 0.0 6.0 0.00 0.00 0.00 49 1013.9
20260504182559 76 87 2.0 6.0 0.00 0.00 0.00 50 1013.8
20260504182056 76 229 0.0 3.0 0.00 0.00 0.00 49 1014.1
20260504181556 76 221 2.0 3.0 0.00 0.00 0.00 49 1014.0
20260504181055 75 202 0.0 3.0 0.00 0.00 0.00 49 1014.1
20260504180553 75 229 1.0 3.0 0.00 0.00 0.00 49 1014.2
20260504180053 75 250 1.0 2.0 0.00 0.00 0.00 50 1014.2
20260504175555 75 122 1.0 3.0 0.00 0.00 0.00 51 1014.4
20260504175052 74 234 1.0 3.0 0.00 0.00 0.00 50 1014.4
20260504174600 74 238 1.0 3.0 0.00 0.00 0.00 50 1014.5
20260504174049 74 240 1.0 3.0 0.00 0.00 0.00 51 1014.5
20260504173548 74 230 1.0 3.0 0.00 0.00 0.00 50 1014.6
20260504173051 74 143 1.0 3.0 0.00 0.00 0.00 51 1014.8
20260504172546 73 286 1.0 3.0 0.00 0.00 0.00 49 1014.8
20260504172048 73 204 1.0 3.0 0.00 0.00 0.00 50 1014.9
20260504171543 73 165 0.0 3.0 0.00 0.00 0.00 51 1015.0
20260504171046 73 179 0.0 4.0 0.00 0.00 0.00 50 1015.1
20260504170542 73 240 1.0 4.0 0.00 0.00 0.00 52 1015.2